When you browse on this site, cookies collect data to enhance your experience and personalize the content and advertising you see.
Visit our Privacy Policy to learn more. By continuing to use the site, you agree to this use of cookies and data.
  • In Österreich
  • Länderverzeichnis
  • Für 7 Tage
  • Wassertemperatur
  • Wetterkarte
  • News
  • Widgets
  • user-avatar
    Anmelden

    Stündliche Wetter Schumen

    Heute, 27 Februar, Donnerstag

    Zeit Temperatur Niederschläge Wind Luftdruck Luftfeuchtigkeit
    00:00 +8°C° 0 mm 4 m/S 719 mmHg 78%
    01:00 +8°C° 0 mm 4 m/S 719 mmHg 78%
    02:00 +8°C° 0 mm 5 m/S 718 mmHg 78%
    03:00 +8°C° 0 mm 5 m/S 718 mmHg 78%
    04:00 +8°C° 0 mm 4 m/S 718 mmHg 77%
    05:00 +8°C° 0 mm 4 m/S 718 mmHg 77%
    06:00 +8°C° 0 mm 4 m/S 718 mmHg 76%
    07:00 +8°C° 0 mm 4 m/S 718 mmHg 76%
    08:00 +9°C° 0 mm 3 m/S 718 mmHg 75%
    09:00 +10°C° 0 mm 5 m/S 719 mmHg 66%
    10:00 +13°C° 0 mm 6 m/S 719 mmHg 57%
    11:00 +13°C° 0 mm 8 m/S 719 mmHg 47%
    12:00 +12°C° 0.4 mm 8 m/S 718 mmHg 55%
    13:00 +10°C° 0.4 mm 8 m/S 718 mmHg 62%
    14:00 +9°C° 0.4 mm 8 m/S 718 mmHg 70%
    15:00 +7°C° 0.5 mm 8 m/S 718 mmHg 71%
    16:00 +6°C° 0.5 mm 7 m/S 719 mmHg 72%
    17:00 +5°C° 0.5 mm 7 m/S 719 mmHg 73%
    18:00 +4°C° 0 mm 7 m/S 720 mmHg 70%
    19:00 +2°C° 0 mm 8 m/S 720 mmHg 67%
    20:00 +2°C° 0 mm 9 m/S 721 mmHg 64%
    21:00 +1°C° 0 mm 9 m/S 721 mmHg 66%
    22:00 +1°C° 0 mm 9 m/S 722 mmHg 68%
    23:00 +1°C° 0 mm 9 m/S 723 mmHg 71%

    Morgen, 28 Februar, Freitag

    Zeit Temperatur Niederschläge Wind Luftdruck Luftfeuchtigkeit
    00:00 0°C° 0.1 mm 8 m/S 723 mmHg 72%
    01:00 +1°C° 0.1 mm 6 m/S 724 mmHg 74%
    02:00 0°C° 0.1 mm 4 m/S 724 mmHg 76%
    03:00 0°C° 0 mm 4 m/S 725 mmHg 77%
    04:00 0°C° 0 mm 3 m/S 725 mmHg 78%
    05:00 0°C° 0 mm 3 m/S 725 mmHg 79%
    06:00 0°C° 0 mm 3 m/S 726 mmHg 76%
    07:00 +2°C° 0 mm 2 m/S 726 mmHg 73%
    08:00 +2°C° 0 mm 2 m/S 726 mmHg 70%
    09:00 +4°C° 0 mm 2 m/S 726 mmHg 63%
    10:00 +4°C° 0 mm 3 m/S 726 mmHg 55%
    11:00 +6°C° 0 mm 4 m/S 726 mmHg 48%
    12:00 +6°C° 0 mm 4 m/S 725 mmHg 46%
    13:00 +7°C° 0 mm 5 m/S 725 mmHg 44%
    14:00 +8°C° 0 mm 6 m/S 724 mmHg 42%
    15:00 +8°C° 0 mm 5 m/S 724 mmHg 44%
    16:00 +8°C° 0 mm 5 m/S 724 mmHg 47%
    17:00 +7°C° 0 mm 4 m/S 724 mmHg 50%
    18:00 +6°C° 0.1 mm 5 m/S 724 mmHg 62%
    19:00 +3°C° 0.1 mm 5 m/S 725 mmHg 74%
    20:00 +2°C° 0.1 mm 6 m/S 725 mmHg 86%
    21:00 +2°C° 0.2 mm 6 m/S 725 mmHg 83%
    22:00 +2°C° 0.2 mm 6 m/S 725 mmHg 80%
    23:00 +2°C° 0.2 mm 5 m/S 725 mmHg 76%

    übermorgen, 29 Februar, Samstag

    Zeit Temperatur Niederschläge Wind Luftdruck Luftfeuchtigkeit
    00:00 +1°C° 0 mm 5 m/S 725 mmHg 78%
    01:00 +1°C° 0 mm 5 m/S 725 mmHg 80%
    02:00 +1°C° 0 mm 5 m/S 726 mmHg 81%
    03:00 -1°C° 0 mm 6 m/S 726 mmHg 82%
    04:00 -1°C° 0 mm 6 m/S 726 mmHg 82%
    05:00 -1°C° 0 mm 7 m/S 726 mmHg 82%
    06:00 -1°C° 0 mm 6 m/S 727 mmHg 81%
    07:00 -1°C° 0 mm 6 m/S 728 mmHg 79%
    08:00 0°C° 0 mm 5 m/S 728 mmHg 78%
    09:00 +1°C° 0 mm 5 m/S 729 mmHg 73%
    10:00 +2°C° 0 mm 5 m/S 730 mmHg 67%
    11:00 +3°C° 0 mm 5 m/S 730 mmHg 62%
    12:00 +5°C° 0 mm 5 m/S 731 mmHg 58%
    13:00 +6°C° 0 mm 5 m/S 731 mmHg 55%
    14:00 +6°C° 0 mm 4 m/S 731 mmHg 51%
    15:00 +6°C° 0 mm 4 m/S 731 mmHg 50%
    16:00 +7°C° 0 mm 3 m/S 731 mmHg 50%
    17:00 +7°C° 0 mm 2 m/S 732 mmHg 49%
    18:00 +6°C° 0 mm 2 m/S 732 mmHg 54%
    19:00 +6°C° 0 mm 1 m/S 732 mmHg 58%
    20:00 +5°C° 0 mm 1 m/S 733 mmHg 62%
    21:00 +4°C° 0 mm 1 m/S 733 mmHg 64%
    22:00 +4°C° 0 mm 1 m/S 733 mmHg 67%
    23:00 +2°C° 0 mm 2 m/S 733 mmHg 69%

    1 März, Sonntag

    Zeit Temperatur Niederschläge Wind Luftdruck Luftfeuchtigkeit
    00:00 +2°C° 0 mm 2 m/S 732 mmHg 71%
    01:00 +2°C° 0 mm 2 m/S 732 mmHg 74%
    02:00 +1°C° 0 mm 3 m/S 732 mmHg 77%
    03:00 0°C° 0 mm 3 m/S 732 mmHg 78%
    04:00 0°C° 0 mm 3 m/S 732 mmHg 79%
    05:00 0°C° 0 mm 3 m/S 731 mmHg 80%
    06:00 +1°C° 0 mm 3 m/S 731 mmHg 78%
    07:00 0°C° 0 mm 4 m/S 731 mmHg 76%
    08:00 +1°C° 0 mm 4 m/S 732 mmHg 74%
    09:00 +3°C° 0 mm 4 m/S 732 mmHg 68%
    10:00 +5°C° 0 mm 5 m/S 732 mmHg 63%
    11:00 +7°C° 0 mm 6 m/S 732 mmHg 57%
    12:00 +8°C° 0 mm 5 m/S 731 mmHg 55%
    13:00 +9°C° 0 mm 5 m/S 731 mmHg 53%
    14:00 +10°C° 0 mm 5 m/S 731 mmHg 51%
    15:00 +9°C° 0 mm 5 m/S 730 mmHg 55%
    16:00 +10°C° 0 mm 4 m/S 730 mmHg 58%
    17:00 +10°C° 0 mm 4 m/S 729 mmHg 62%
    18:00 +8°C° 0 mm 4 m/S 729 mmHg 66%
    19:00 +8°C° 0 mm 3 m/S 730 mmHg 71%
    20:00 +5°C° 0 mm 3 m/S 730 mmHg 76%
    21:00 +5°C° 0 mm 3 m/S 730 mmHg 78%
    22:00 +5°C° 0 mm 3 m/S 729 mmHg 81%
    23:00 +4°C° 0 mm 3 m/S 729 mmHg 83%

    2 März, Montag

    Zeit Temperatur Niederschläge Wind Luftdruck Luftfeuchtigkeit
    00:00 +4°C° 0 mm 3 m/S 729 mmHg 85%
    01:00 +4°C° 0 mm 2 m/S 728 mmHg 87%
    02:00 +4°C° 0 mm 2 m/S 728 mmHg 90%
    03:00 +4°C° 0 mm 2 m/S 728 mmHg 91%
    04:00 +4°C° 0 mm 2 m/S 727 mmHg 92%
    05:00 +3°C° 0 mm 2 m/S 726 mmHg 93%
    06:00 +3°C° 0 mm 3 m/S 726 mmHg 92%
    07:00 +3°C° 0 mm 3 m/S 726 mmHg 91%
    08:00 +3°C° 0 mm 3 m/S 726 mmHg 90%
    09:00 +6°C° 0 mm 4 m/S 726 mmHg 82%
    10:00 +8°C° 0 mm 4 m/S 725 mmHg 75%
    11:00 +10°C° 0 mm 5 m/S 725 mmHg 67%
    12:00 +12°C° 0 mm 5 m/S 725 mmHg 63%
    13:00 +14°C° 0 mm 6 m/S 725 mmHg 58%
    14:00 +15°C° 0 mm 6 m/S 724 mmHg 53%
    15:00 +15°C° 0 mm 6 m/S 724 mmHg 55%
    16:00 +15°C° 0 mm 5 m/S 724 mmHg 57%
    17:00 +15°C° 0 mm 5 m/S 723 mmHg 58%
    18:00 +13°C° 0 mm 5 m/S 724 mmHg 63%
    19:00 +12°C° 0 mm 4 m/S 724 mmHg 69%
    20:00 +10°C° 0 mm 4 m/S 724 mmHg 74%
    21:00 +10°C° 0 mm 3 m/S 724 mmHg 77%
    22:00 +9°C° 0 mm 3 m/S 725 mmHg 80%
    23:00 +9°C° 0 mm 2 m/S 725 mmHg 83%

    3 März, Dienstag

    Zeit Temperatur Niederschläge Wind Luftdruck Luftfeuchtigkeit
    00:00 +8°C° 0 mm 2 m/S 725 mmHg 83%
    01:00 +9°C° 0 mm 1 m/S 725 mmHg 84%
    02:00 +9°C° 0 mm 1 m/S 725 mmHg 84%
    03:00 +9°C° 0 mm 1 m/S 725 mmHg 84%
    04:00 +9°C° 0 mm 1 m/S 725 mmHg 85%
    05:00 +8°C° 0 mm 1 m/S 725 mmHg 85%
    06:00 +8°C° 0 mm 2 m/S 725 mmHg 86%
    07:00 +8°C° 0 mm 2 m/S 726 mmHg 88%
    08:00 +8°C° 0 mm 3 m/S 726 mmHg 90%
    09:00 +10°C° 0 mm 4 m/S 726 mmHg 82%
    10:00 +11°C° 0 mm 6 m/S 726 mmHg 75%
    11:00 +13°C° 0 mm 8 m/S 726 mmHg 67%
    12:00 +15°C° 0 mm 8 m/S 726 mmHg 64%
    13:00 +16°C° 0 mm 7 m/S 725 mmHg 62%
    14:00 +16°C° 0 mm 7 m/S 725 mmHg 59%
    15:00 +16°C° 0 mm 7 m/S 725 mmHg 62%
    16:00 +15°C° 0 mm 6 m/S 725 mmHg 66%
    17:00 +14°C° 0 mm 5 m/S 724 mmHg 69%
    18:00 +13°C° 0 mm 5 m/S 724 mmHg 71%
    19:00 +13°C° 0 mm 5 m/S 724 mmHg 73%
    20:00 +11°C° 0 mm 6 m/S 724 mmHg 74%
    21:00 +11°C° 0 mm 6 m/S 724 mmHg 75%
    22:00 +11°C° 0 mm 6 m/S 724 mmHg 75%
    23:00 +10°C° 0 mm 6 m/S 724 mmHg 75%
    Mehr zeigen